{"data":{"norad_id":27954,"intl_designator":"2003-044A","name":"GALAXY 13 (HORIZONS-1)","alt_names":[],"object_type":"PAYLOAD","status":"ACTIVE","operator":null,"country":"US","launch_date":"2003-10-01","launch_site_code":"SEAL","launch_vehicle":null,"mission":null,"orbit_class":"UNKNOWN","rcs_meters":25.4101,"size_class":null,"mass_kg":null,"dimensions":null,"purposes":["comms"],"wikipedia_slug":null,"has_3d_model":false,"image_url":null,"decayed_at":null,"tle_current":{"epoch":"2026-09-19T15:25:30.347040Z","epoch_age_seconds":88610,"freshness":"FRESH","line1":"1 27954U 03044A   26262.64271235  .00000129  00000+0  00000+0 0  9996","line2":"2 27954   1.6567  82.5109 0001661 104.2810 253.1303  1.00271250 47511","mean_motion":1.0027125,"eccentricity":0.0001661,"inclination_deg":1.6567,"raan_deg":82.5109,"arg_perigee_deg":104.281,"mean_anomaly_deg":253.1303,"bstar":0,"rev_number":4751,"period_min":1436.1045663637,"perigee_km":35779.741354888,"apogee_km":35793.748528669,"semimajor_km":42164.881941779,"source":"CELESTRAK","updated_at":"2026-09-20T09:00:35.514956Z"}}}